Stations météo

Publicité
Nimes-Garons, France (7646): Température de l'air & dewpoint: 10.02.2019 08:00:00 - 16.02.2019 08:00:00 (CET)Nimes-Garons, France (7646): Vitesse du vent & gusts: 10.02.2019 08:00:00 - 16.02.2019 08:00:00 (CET)Nimes-Garons, France (7646): Direction du vent: 10.02.2019 08:00:00 - 16.02.2019 08:00:00 (CET)Nimes-Garons, France (7646): reduced air pressure: 10.02.2019 08:00:00 - 16.02.2019 08:00:00 (CET)Nimes-Garons, France (7646): visibility: 10.02.2019 08:00:00 - 16.02.2019 08:00:00 (CET)Nimes-Garons, France (7646): Quantités de précipitations: 10.02.2019 08:00:00 - 16.02.2019 08:00:00 (CET)
Date & Time tt [°C] td [°C] ff [km/h] ff [knt] fx [km/h] fx [knt] dd ppp [hPa] vv [km] rr [mm]
16.02.2019 08:00:00 - - - - - - - - - -
16.02.2019 07:00:00 1,1 -0,5 6 4 11 6 NE 1030,9 13 0,0
16.02.2019 06:00:00 0,5 -0,2 3 1 8 5 NE 1031,1 8 0,0
16.02.2019 05:00:00 0,9 -0,3 3 2 6 3 N 1030,7 10 0,0
16.02.2019 04:00:00 1,1 0,1 5 3 7 4 NE 1030,5 7 0,0
16.02.2019 03:00:00 3,9 1,8 5 3 12 6 E 1030,5 7 0,0
16.02.2019 02:00:00 4,7 2,7 8 4 11 6 ESE 1030,6 7 0,0
16.02.2019 01:00:00 3,6 1,5 3 2 5 3 E 1030,0 10 0,0
16.02.2019 00:00:00 4,0 1,9 0 0 5 3 N 1029,8 7 0,0
15.02.2019 23:00:00 5,1 2,8 3 2 10 6 WNW 1029,6 10 0,0
15.02.2019 22:00:00 5,0 2,7 9 5 12 7 W 1029,5 8 0,0
15.02.2019 21:00:00 6,6 3,6 9 5 16 9 W 1029,6 10 0,0
15.02.2019 20:00:00 7,6 4,9 11 6 15 8 WSW 1029,6 10 0,0
15.02.2019 19:00:00 9,2 5,2 9 5 13 7 WSW 1029,4 19 0,0
15.02.2019 18:00:00 13,7 0,0 4 2 9 5 SW 1028,9 59 0,0
15.02.2019 17:00:00 17,3 -5,3 6 3 10 6 SW 1029,0 59 0,0
15.02.2019 16:00:00 17,9 -1,9 2 1 7 4 S 1029,3 45 0,0
15.02.2019 15:00:00 17,0 0,6 3 2 11 6 N 1029,8 20 0,0
15.02.2019 14:00:00 15,4 3,2 4 2 14 8 NE 1030,5 44 0,0
15.02.2019 13:00:00 13,7 4,3 8 4 14 8 NE 1031,5 20 0,0
15.02.2019 12:00:00 11,5 4,7 8 4 13 7 ENE 1032,3 18 0,0
15.02.2019 11:00:00 9,3 4,5 6 4 12 7 NNE 1032,3 14 0,0
15.02.2019 10:00:00 6,7 5,0 0 0 7 4 N 1032,7 12 0,0
15.02.2019 09:00:00 3,1 2,8 0 0 7 4 N 1032,9 6 0,0
15.02.2019 08:00:00 1,0 0,7 4 2 9 5 NE 1032,7 8 0,0
15.02.2019 07:00:00 -0,5 -0,8 3 2 6 3 NNE 1032,4 0,2 0,0
15.02.2019 06:00:00 0,2 -0,1 4 2 7 4 N 1032,1 6 0,0
15.02.2019 05:00:00 0,9 0,6 3 1 4 2 N 1032,1 3,2 0,0
15.02.2019 04:00:00 1,5 1,2 0 0 8 4 N 1032,2 0,2 0,0
15.02.2019 03:00:00 1,1 0,5 3 2 6 3 ENE 1032,6 0,1 0,0
15.02.2019 02:00:00 3,1 2,8 3 1 6 3 ENE 1032,7 0,5 0,0
15.02.2019 01:00:00 3,4 3,0 4 2 5 3 NNW 1032,6 0,1 0,0
15.02.2019 00:00:00 3,7 3,3 2 1 5 3 NNW 1032,7 0,1 0,0
14.02.2019 23:00:00 4,5 3,8 4 2 8 4 W 1032,8 2,3 0,0
14.02.2019 22:00:00 5,8 5,1 4 2 9 5 W 1032,5 2,4 0,0
14.02.2019 21:00:00 6,7 5,5 7 4 11 6 WSW 1032,6 11 0,0
14.02.2019 20:00:00 7,7 5,7 8 4 14 8 WSW 1032,7 14 0,0
14.02.2019 19:00:00 8,1 3,2 6 3 10 5 S 1032,7 35 0,0
14.02.2019 18:00:00 13,3 3,6 0 0 4 2 N 1032,3 37 0,0
14.02.2019 17:00:00 15,0 4,1 3 2 10 5 SSW 1032,5 35 0,0
14.02.2019 16:00:00 14,8 4,5 5 3 13 7 SW 1033,0 25 0,0
14.02.2019 15:00:00 14,9 4,8 6 3 17 9 SE 1033,4 43 0,0
14.02.2019 14:00:00 14,5 5,3 5 3 11 6 E 1034,2 32 0,0
14.02.2019 13:00:00 13,5 6,1 7 4 17 9 ESE 1035,2 25 0,0
14.02.2019 12:00:00 12,1 5,3 11 6 17 9 ENE 1036,2 20 0,0
14.02.2019 11:00:00 9,5 4,3 12 7 17 9 NE 1036,4 18 0,0
14.02.2019 10:00:00 7,7 3,4 8 4 16 8 ENE 1036,8 17 0,0
14.02.2019 09:00:00 5,2 2,0 10 6 14 8 ENE 1037,0 16 0,0
14.02.2019 08:00:00 3,3 0,9 10 5 16 8 ENE 1036,9 19 0,0
14.02.2019 07:00:00 3,7 0,9 11 6 16 9 ENE 1036,6 19 0,0
14.02.2019 06:00:00 3,6 0,6 12 6 16 9 ENE 1036,8 15 0,0
14.02.2019 05:00:00 3,9 1,4 10 6 17 9 ENE 1036,6 14 0,0
14.02.2019 04:00:00 3,4 1,8 8 4 10 5 ENE 1036,4 11 0,0
14.02.2019 03:00:00 3,5 2,6 6 4 10 5 E 1036,5 9 0,0
14.02.2019 02:00:00 4,8 4,2 5 3 8 4 ENE 1036,2 9 0,0
14.02.2019 01:00:00 5,7 5,4 4 2 10 5 E 1036,3 8 0,0
14.02.2019 00:00:00 4,6 4,3 5 3 6 3 NE 1036,0 0,7 0,0
13.02.2019 23:00:00 5,3 4,9 0 0 3 1 N 1035,8 0,4 0,0
13.02.2019 22:00:00 5,8 5,2 0 0 4 2 N 1035,4 0,3 0,0
13.02.2019 21:00:00 7,2 6,8 3 1 6 3 SSW 1035,0 3,7 0,0
13.02.2019 20:00:00 8,0 6,0 6 3 12 7 S 1034,6 12 0,0
13.02.2019 19:00:00 9,1 6,4 11 6 17 9 S 1034,1 39 0,0
13.02.2019 18:00:00 12,1 1,1 6 3 9 5 S 1033,3 58 0,0
13.02.2019 17:00:00 15,4 1,5 0 0 15 8 N 1033,1 47 0,0
13.02.2019 16:00:00 15,4 0,8 4 2 14 8 E 1033,0 53 0,0
13.02.2019 15:00:00 16,1 0,6 5 3 17 9 ENE 1033,0 18 0,0
13.02.2019 14:00:00 14,3 1,2 9 5 21 11 ENE 1033,2 55 0,0
13.02.2019 13:00:00 13,1 0,8 14 8 24 13 NE 1033,6 56 0,0
13.02.2019 12:00:00 11,1 0,5 16 9 29 16 NE 1033,9 60 0,0
13.02.2019 11:00:00 9,2 -0,4 20 11 33 18 NE 1033,6 60 0,0
13.02.2019 10:00:00 7,2 -0,3 18 10 32 17 NE 1033,6 60 0,0
13.02.2019 09:00:00 5,4 -0,7 18 10 29 16 NE 1033,3 34 0,0
13.02.2019 08:00:00 3,6 -1,4 15 8 25 13 NE 1032,5 49 0,0
13.02.2019 07:00:00 3,4 -1,4 15 8 23 13 NNE 1031,9 54 0,0
13.02.2019 06:00:00 3,7 -1,1 16 9 32 18 NNE 1031,6 52 0,0
13.02.2019 05:00:00 4,3 -1,3 20 11 34 18 NNE 1030,9 60 0,0
13.02.2019 04:00:00 5,0 -1,3 20 11 40 21 NNE 1030,5 60 0,0
13.02.2019 03:00:00 5,9 -2,0 20 11 47 25 N 1030,2 60 0,0
13.02.2019 02:00:00 6,7 -1,7 30 16 51 28 N 1029,8 60 0,0
13.02.2019 01:00:00 6,4 -1,5 29 16 52 28 N 1029,9 60 0,0
13.02.2019 00:00:00 6,4 -2,8 21 11 45 25 NNE 1030,3 60 0,0
12.02.2019 23:00:00 7,7 -4,1 27 15 55 30 N 1029,6 60 0,0
12.02.2019 22:00:00 8,2 -4,3 35 19 55 30 N 1029,3 60 0,0
12.02.2019 21:00:00 8,5 -4,0 24 13 50 27 N 1029,9 60 0,0
12.02.2019 20:00:00 8,5 -5,7 22 12 37 20 N 1030,2 60 0,0
12.02.2019 19:00:00 8,8 -6,2 18 10 39 21 N 1030,2 60 0,0
12.02.2019 18:00:00 10,5 -5,9 28 15 48 26 N 1029,4 55 0,0
12.02.2019 17:00:00 12,2 -2,8 34 19 59 32 N 1029,0 60 0,0
12.02.2019 16:00:00 12,6 -2,5 37 20 59 32 N 1028,6 28 0,0
12.02.2019 15:00:00 13,0 -1,4 37 20 58 31 NNE 1028,5 29 0,0
12.02.2019 14:00:00 13,4 -1,8 31 17 57 31 NNE 1029,2 34 0,0
12.02.2019 13:00:00 12,8 -1,9 30 16 57 31 N 1029,9 57 0,0
12.02.2019 12:00:00 12,1 -0,8 22 12 49 27 N 1030,8 41 0,0
12.02.2019 11:00:00 9,9 -1,2 39 21 65 35 N 1030,9 53 0,0
12.02.2019 10:00:00 8,6 -1,0 33 18 57 31 N 1031,2 60 0,0
12.02.2019 09:00:00 6,8 -0,9 19 10 42 23 N 1031,5 60 0,0
12.02.2019 08:00:00 5,4 -0,9 27 15 52 28 N 1030,3 60 0,0
12.02.2019 07:00:00 5,8 -0,3 27 14 49 26 N 1030,1 60 0,0
12.02.2019 06:00:00 5,7 0,6 31 17 46 25 N 1029,6 60 0,0
12.02.2019 05:00:00 6,0 0,5 27 15 57 31 N 1029,7 60 0,0
12.02.2019 04:00:00 6,4 0,5 30 16 48 26 N 1029,4 60 0,0
12.02.2019 03:00:00 6,0 0,5 24 13 45 25 N 1029,8 60 0,0
12.02.2019 02:00:00 5,9 0,8 28 15 41 22 N 1029,8 60 0,0
12.02.2019 01:00:00 5,3 1,6 23 12 31 17 N 1029,9 60 0,0
12.02.2019 00:00:00 3,1 0,8 9 5 16 9 N 1030,3 60 0,0
11.02.2019 23:00:00 4,6 1,3 11 6 24 13 N 1029,6 60 0,0
11.02.2019 22:00:00 4,1 1,0 9 5 15 8 NNW 1029,3 60 0,0
11.02.2019 21:00:00 4,7 1,0 6 3 20 11 NNW 1029,0 60 0,0
11.02.2019 20:00:00 6,5 1,2 11 6 24 13 NE 1028,5 56 0,0
11.02.2019 19:00:00 7,9 0,6 14 8 42 23 NNE 1027,4 60 0,0
11.02.2019 18:00:00 10,7 -2,4 23 12 45 25 NNW 1026,1 60 0,0
11.02.2019 17:00:00 11,9 -3,1 24 13 51 28 NNW 1025,4 60 0,0
11.02.2019 16:00:00 12,2 -3,2 28 15 55 30 NNW 1025,0 60 0,0
11.02.2019 15:00:00 11,4 -2,4 23 12 51 28 N 1024,7 58 0,0
11.02.2019 14:00:00 12,2 -2,5 32 18 62 34 NNW 1024,3 36 0,0
11.02.2019 13:00:00 11,8 -2,4 26 14 51 28 NNW 1024,6 43 0,0
11.02.2019 12:00:00 11,9 -2,0 30 16 49 26 N 1024,7 49 0,0
11.02.2019 11:00:00 10,9 -1,2 19 10 36 20 NNW 1024,2 60 0,0
11.02.2019 10:00:00 9,7 0,6 12 6 23 12 NNW 1023,8 60 0,0
11.02.2019 09:00:00 7,3 0,7 0 0 11 6 N 1023,4 60 0,0
11.02.2019 08:00:00 3,7 -1,1 4 2 13 7 WNW 1022,6 60 0,0
11.02.2019 07:00:00 5,1 -0,7 8 5 17 9 W 1021,8 60 0,0
11.02.2019 06:00:00 4,8 -0,6 3 1 23 12 N 1021,4 60 0,0
11.02.2019 05:00:00 7,0 0,2 16 9 35 19 NW 1020,3 60 0,0
11.02.2019 04:00:00 5,7 -0,2 12 6 27 15 WNW 1020,5 60 0,0
11.02.2019 03:00:00 5,7 0,5 10 6 27 15 WNW 1020,0 60 0,0
11.02.2019 02:00:00 4,9 0,5 8 4 23 13 WNW 1019,8 60 0,0
11.02.2019 01:00:00 6,6 1,1 13 7 26 14 W 1019,9 55 0,0
11.02.2019 00:00:00 7,7 0,6 16 9 32 17 W 1019,2 60 0,0
10.02.2019 23:00:00 8,9 -0,2 15 8 37 20 WNW 1019,1 60 0,0
10.02.2019 22:00:00 8,7 -0,4 10 5 42 23 NW 1018,9 60 0,0
10.02.2019 21:00:00 10,3 -0,5 23 12 41 22 NNW 1017,7 60 0,0
10.02.2019 20:00:00 9,2 2,5 10 5 21 11 W 1017,0 60 0,0
10.02.2019 19:00:00 10,7 3,5 8 5 34 19 W 1016,1 60 0,0
10.02.2019 18:00:00 12,7 5,4 21 11 39 21 NNW 1014,8 60 0,0
10.02.2019 17:00:00 13,6 7,6 17 9 31 17 W 1013,2 42 0,0
10.02.2019 16:00:00 13,7 10,1 11 6 17 9 S 1013,0 16 0,0
10.02.2019 15:00:00 14,4 10,6 6 3 30 16 S 1012,8 14 0,0
10.02.2019 14:00:00 12,2 9,6 19 11 27 14 ESE 1012,2 14 0,0
10.02.2019 13:00:00 10,8 7,7 11 6 20 11 ENE 1013,9 14 0,0
10.02.2019 12:00:00 10,4 6,9 10 5 21 12 N 1014,6 17 0,0
10.02.2019 11:00:00 10,3 7,2 12 7 32 17 ESE 1013,7 18 0,0
10.02.2019 10:00:00 10,0 7,1 15 8 27 15 ESE 1014,2 17 0,0
10.02.2019 09:00:00 9,5 7,4 10 6 18 10 E 1014,8 13 0,0
10.02.2019 08:00:00 9,0 7,3 9 5 19 10 ENE 1014,8 10 0,0

tt = Température de l'air
td = dewpoint
ff = Vitesse du vent
fx = gusts
dd = Direction du vent
ppp = reduced air pressure
vv = visibility
rr = Quantités de précipitations

stations d'obs. à proximité